Starlink 31470

operational
NORAD ID: 59569 Int'l Des: 2024-076 Owner: SPXS Country: US Constellation: starlink
LEOCIRCULAR

About Starlink 31470

Description loading...

Live Position

Loading 3D Globe...

Upcoming Passes

Altitude History

Altitude vs Time

uPlot chart will show altitude changes over time

Two-Line Element Set

1 59569U 24076F 25306.45801319 -.00003216 00000-0 -10738-3 0 9996
2 59569 43.0032 4.1356 0001583 273.2270 86.8400 15.27586866 86999
Epoch: Nov 2, 2025 • Age: 29 hours

Current Status

Altitude 482.7 km
Velocity 7.63 km/s
Sub-Earth Point 14.86°N, 121.18°W
Launch Date Apr 23, 2024
Age 1.5 years
Type internet

Technical Details

Classification Payload
Mass 730.00 kg
Dry Mass 700.00 kg
Total Mass 730.00 kg
Length 0.30 m
Diameter 4.10 m
Span 29.00 m
Shape Box + pan
Manufacturer SPXS
Bus Type Starlink V2M
Phase Status In Orbit
Owner/State SPXS/US

Large Constellations

Loading constellations...